SL-8 R/B

Satellite information

Favourite Embed

Satellite Type and Status

ROCKET BODYIN ORBIT

Key statistics

Satellite SL-8 R/B at a glance.

Uptime

15151

Days in orbit

Revolutions

≈ 13.8

Per day

Orbit

LEO

Low Earth Orbit

Inclination

83.0

Latest

Satellite identification and parameters

Extended collection of information and parameters for SL-8 R/B.

Object identification

Identified? True

Debris? False

Object name: SL-8 R/B

International designator: 1984-062B

Object number (NORAD): 15056

Object ID (CCSDS): 15056

Country: COMMONWEALTH OF INDEPENDENT STATES (CIS)

Current information (Y/N): Y

RCS size: LARGE

Orbital parameters

Period: 104.604 minutes

Inclination: 82.9554 deg

SMA: 7354.039 km

Apoapsis: 995.087 km

Periapsis: 956.721 km

RAAN: 179.4096 deg

Eccentricy: 0.00260848

Argument of periapsis: 58.4979 deg

Mean anomaly: 4.4313 deg

Mean motion: 13.76619323 rev/day

Mean motion (dot): 0.00000208 rev/day2

B* drag term: 0.00019604159 1/REarth

Two-line elements (TLE)

Creation date: Dec. 14, 2025, 3:07 a.m.

Reference frame: TEME

Reference center: EARTH

Epoch: Dec. 13, 2025, 2:40 p.m. UTC

TLE line 0: 0 SL-8 R/B

TLE line 1: 1 15056U 84062B 25347.61172993 .00000208 00000-0 19604-3 0 9999

TLE line 2: 2 15056 82.9554 179.4096 0026085 58.4979 4.4313 13.76619323 82816

Live tracking on map

Real-time ground track for satellite SL-8 R/B.

In-orbit conjunctions

A list of the most updated potential collisions computed for object SL-8 R/B.

Target Orbit TCA Probability of collision Miss distance Type
COSMOS 1725 LEO 2025-05-20 20:03:38 0.002330754 62.0 (m) PAYLOAD
COSMOS 2251 DEB LEO 2024-12-28 18:05:15 0.0007823453 76.0 (m) DEBRIS
NOAA 16 DEB SSO 2024-12-01 16:13:47 0.001869237 63.0 (m) DEBRIS

Associated space launch

Civilian navigation satellite equivalent to the purely military Parus

SL-8 R/B was lifted into orbit during the mission ‘Kosmos-3M | Nadezhda 3’, on board a Kosmos-3M space rocket.

The launch took place on June 21, 1984, 7:40 p.m. from 132/2.

For more information about the launch, click the button.

Launch to space Kosmos-3M | Nadezhda 3
Kosmos-3M | Nadezhda 3

Agency: N/A

Status: Launch Successful

Launch date: June 21, 1984, 7:40 p.m. UTC

Rocket: Kosmos-3M

Launch pad: 132/2

Location: Plesetsk Cosmodrome, Russian Federation

...

Latest news about this satellite

There are no fresh news available about this satellite. Check back as we update our databases every day.


Newsletter sign-up

Weekly statistics, charts and insights to help you stay on top of the space industry.